owner,sensor,date,latitude,longitude,relative_humidity,qcFlag 
WAVCIS,ioos:station:WAVCIS:CSI16:1,2010-04-01T00:00:00Z,29.4012,-89.0355,4.93,11111222 
WAVCIS,ioos:station:WAVCIS:CSI16:1,2010-04-01T01:00:00Z,29.4012,-89.0355,4.579,11111222 
WAVCIS,ioos:station:WAVCIS:CSI16:1,2010-04-01T02:00:00Z,29.4012,-89.0355,3.637,11111222 
WAVCIS,ioos:station:WAVCIS:CSI16:1,2010-04-01T03:00:00Z,29.4012,-89.0355,3.357,11111222 
WAVCIS,ioos:station:WAVCIS:CSI16:1,2010-04-01T04:00:00Z,29.4012,-89.0355,2.918,11111222 
WAVCIS,ioos:station:WAVCIS:CSI16:1,2010-04-01T05:00:00Z,29.4012,-89.0355,2.943,11111222 
WAVCIS,ioos:station:WAVCIS:CSI16:1,2010-04-01T06:00:00Z,29.4012,-89.0355,3.865,11111222 
WAVCIS,ioos:station:WAVCIS:CSI16:1,2010-04-01T07:00:00Z,29.4012,-89.0355,3.993,11111222 
WAVCIS,ioos:station:WAVCIS:CSI16:1,2010-04-01T08:00:00Z,29.4012,-89.0355,4.638,11111222 
WAVCIS,ioos:station:WAVCIS:CSI16:1,2010-04-01T09:00:00Z,29.4012,-89.0355,4.12,11111222 
WAVCIS,ioos:station:WAVCIS:CSI16:1,2010-04-01T10:00:00Z,29.4012,-89.0355,3.1,11111222 
WAVCIS,ioos:station:WAVCIS:CSI16:1,2010-04-01T11:00:00Z,29.4012,-89.0355,3.792,11111222 
WAVCIS,ioos:station:WAVCIS:CSI16:1,2010-04-01T12:00:00Z,29.4012,-89.0355,3.222,11111222 
WAVCIS,ioos:station:WAVCIS:CSI16:1,2010-04-01T13:00:00Z,29.4012,-89.0355,2.826,11111222 
WAVCIS,ioos:station:WAVCIS:CSI16:1,2010-04-01T14:00:00Z,29.4012,-89.0355,5.224,11111222 
WAVCIS,ioos:station:WAVCIS:CSI16:1,2010-04-01T15:00:00Z,29.4012,-89.0355,3.989,11111222 
WAVCIS,ioos:station:WAVCIS:CSI16:1,2010-04-01T16:00:00Z,29.4012,-89.0355,4.457,11111222 
WAVCIS,ioos:station:WAVCIS:CSI16:1,2010-04-01T17:00:00Z,29.4012,-89.0355,4.196,11111222 
WAVCIS,ioos:station:WAVCIS:CSI16:1,2010-04-01T18:00:00Z,29.4012,-89.0355,5.003,11111222 
WAVCIS,ioos:station:WAVCIS:CSI16:1,2010-04-01T19:00:00Z,29.4012,-89.0355,4.128,11111222 
WAVCIS,ioos:station:WAVCIS:CSI16:1,2010-04-01T20:00:00Z,29.4012,-89.0355,4.525,11111222 
WAVCIS,ioos:station:WAVCIS:CSI16:1,2010-04-01T21:00:00Z,29.4012,-89.0355,4.531,11111222 
WAVCIS,ioos:station:WAVCIS:CSI16:1,2010-04-01T22:00:00Z,29.4012,-89.0355,5.45,11111222 
WAVCIS,ioos:station:WAVCIS:CSI16:1,2010-04-01T23:00:00Z,29.4012,-89.0355,5.888,11111222 
WAVCIS,ioos:station:WAVCIS:CSI16:1,2010-04-02T00:00:00Z,29.4012,-89.0355,5.929,11111222 
WAVCIS,ioos:station:WAVCIS:CSI16:1,2010-04-02T01:00:00Z,29.4012,-89.0355,6.156,11111222 
WAVCIS,ioos:station:WAVCIS:CSI16:1,2010-04-02T02:00:00Z,29.4012,-89.0355,6.008,11111222 
WAVCIS,ioos:station:WAVCIS:CSI16:1,2010-04-02T03:00:00Z,29.4012,-89.0355,6.927,11111222 
WAVCIS,ioos:station:WAVCIS:CSI16:1,2010-04-02T04:00:00Z,29.4012,-89.0355,8.55,11111222 
WAVCIS,ioos:station:WAVCIS:CSI16:1,2010-04-02T05:00:00Z,29.4012,-89.0355,8.36,11111222 
WAVCIS,ioos:station:WAVCIS:CSI16:1,2010-04-02T06:00:00Z,29.4012,-89.0355,7.72,11111222 
WAVCIS,ioos:station:WAVCIS:CSI16:1,2010-04-02T07:00:00Z,29.4012,-89.0355,6.732,11111222 
WAVCIS,ioos:station:WAVCIS:CSI16:1,2010-04-02T08:00:00Z,29.4012,-89.0355,7.59,11111222 
WAVCIS,ioos:station:WAVCIS:CSI16:1,2010-04-02T09:00:00Z,29.4012,-89.0355,7.57,11111222 
WAVCIS,ioos:station:WAVCIS:CSI16:1,2010-04-02T10:00:00Z,29.4012,-89.0355,8.0,11111222 
WAVCIS,ioos:station:WAVCIS:CSI16:1,2010-04-02T11:00:00Z,29.4012,-89.0355,8.82,11111222 
WAVCIS,ioos:station:WAVCIS:CSI16:1,2010-04-02T12:00:00Z,29.4012,-89.0355,8.98,11111222 
WAVCIS,ioos:station:WAVCIS:CSI16:1,2010-04-02T13:00:00Z,29.4012,-89.0355,9.14,11111222 
WAVCIS,ioos:station:WAVCIS:CSI16:1,2010-04-02T14:00:00Z,29.4012,-89.0355,8.79,11111222 
WAVCIS,ioos:station:WAVCIS:CSI16:1,2010-04-02T15:00:00Z,29.4012,-89.0355,8.89,11111222 
WAVCIS,ioos:station:WAVCIS:CSI16:1,2010-04-02T16:00:00Z,29.4012,-89.0355,7.66,11111222 
WAVCIS,ioos:station:WAVCIS:CSI16:1,2010-04-02T17:00:00Z,29.4012,-89.0355,8.03,11111222 
WAVCIS,ioos:station:WAVCIS:CSI16:1,2010-04-02T18:00:00Z,29.4012,-89.0355,7.22,11111222 
WAVCIS,ioos:station:WAVCIS:CSI16:1,2010-04-02T19:00:00Z,29.4012,-89.0355,7.18,11111222 
WAVCIS,ioos:station:WAVCIS:CSI16:1,2010-04-02T20:00:00Z,29.4012,-89.0355,7.75,11111222 
WAVCIS,ioos:station:WAVCIS:CSI16:1,2010-04-02T21:00:00Z,29.4012,-89.0355,8.14,11111222 
WAVCIS,ioos:station:WAVCIS:CSI16:1,2010-04-02T22:00:00Z,29.4012,-89.0355,8.24,11111222 
WAVCIS,ioos:station:WAVCIS:CSI16:1,2010-04-02T23:00:00Z,29.4012,-89.0355,7.74,11111222 
WAVCIS,ioos:station:WAVCIS:CSI16:1,2010-04-03T00:00:00Z,29.4012,-89.0355,8.23,11111222 
WAVCIS,ioos:station:WAVCIS:CSI16:1,2010-04-03T01:00:00Z,29.4012,-89.0355,7.47,11111222 
WAVCIS,ioos:station:WAVCIS:CSI16:1,2010-04-03T02:00:00Z,29.4012,-89.0355,8.54,11111222 
WAVCIS,ioos:station:WAVCIS:CSI16:1,2010-04-03T03:00:00Z,29.4012,-89.0355,7.59,11111222 
WAVCIS,ioos:station:WAVCIS:CSI16:1,2010-04-03T04:00:00Z,29.4012,-89.0355,8.72,11111222 
WAVCIS,ioos:station:WAVCIS:CSI16:1,2010-04-03T05:00:00Z,29.4012,-89.0355,9.32,11111222 
WAVCIS,ioos:station:WAVCIS:CSI16:1,2010-04-03T06:00:00Z,29.4012,-89.0355,8.44,11111222 
WAVCIS,ioos:station:WAVCIS:CSI16:1,2010-04-03T07:00:00Z,29.4012,-89.0355,7.78,11111222 
WAVCIS,ioos:station:WAVCIS:CSI16:1,2010-04-03T08:00:00Z,29.4012,-89.0355,7.55,11111222 
WAVCIS,ioos:station:WAVCIS:CSI16:1,2010-04-03T09:00:00Z,29.4012,-89.0355,6.697,11111222 
WAVCIS,ioos:station:WAVCIS:CSI16:1,2010-04-03T10:00:00Z,29.4012,-89.0355,5.745,11111222 
WAVCIS,ioos:station:WAVCIS:CSI16:1,2010-04-03T11:00:00Z,29.4012,-89.0355,5.601,11111222 
WAVCIS,ioos:station:WAVCIS:CSI16:1,2010-04-03T12:00:00Z,29.4012,-89.0355,7.67,11111222 
WAVCIS,ioos:station:WAVCIS:CSI16:1,2010-04-03T13:00:00Z,29.4012,-89.0355,7.21,11111222 
WAVCIS,ioos:station:WAVCIS:CSI16:1,2010-04-03T14:00:00Z,29.4012,-89.0355,6.725,11111222 
WAVCIS,ioos:station:WAVCIS:CSI16:1,2010-04-03T15:00:00Z,29.4012,-89.0355,4.345,11111222 
WAVCIS,ioos:station:WAVCIS:CSI16:1,2010-04-03T16:00:00Z,29.4012,-89.0355,3.12,11111222 
WAVCIS,ioos:station:WAVCIS:CSI16:1,2010-04-03T17:00:00Z,29.4012,-89.0355,3.156,11111222 
WAVCIS,ioos:station:WAVCIS:CSI16:1,2010-04-03T18:00:00Z,29.4012,-89.0355,3.463,11111222 
WAVCIS,ioos:station:WAVCIS:CSI16:1,2010-04-03T19:00:00Z,29.4012,-89.0355,3.065,11111222 
WAVCIS,ioos:station:WAVCIS:CSI16:1,2010-04-03T20:00:00Z,29.4012,-89.0355,3.887,11111222 
WAVCIS,ioos:station:WAVCIS:CSI16:1,2010-04-03T21:00:00Z,29.4012,-89.0355,4.836,11111222 
WAVCIS,ioos:station:WAVCIS:CSI16:1,2010-04-03T22:00:00Z,29.4012,-89.0355,5.086,11111222 
WAVCIS,ioos:station:WAVCIS:CSI16:1,2010-04-03T23:00:00Z,29.4012,-89.0355,5.87,11111222 
WAVCIS,ioos:station:WAVCIS:CSI16:1,2010-04-04T00:00:00Z,29.4012,-89.0355,6.095,11111222 
WAVCIS,ioos:station:WAVCIS:CSI16:1,2010-04-04T01:00:00Z,29.4012,-89.0355,6.409,11111222 
WAVCIS,ioos:station:WAVCIS:CSI16:1,2010-04-04T02:00:00Z,29.4012,-89.0355,5.323,11111222 
WAVCIS,ioos:station:WAVCIS:CSI16:1,2010-04-04T03:00:00Z,29.4012,-89.0355,4.869,11111222 
WAVCIS,ioos:station:WAVCIS:CSI16:1,2010-04-04T04:00:00Z,29.4012,-89.0355,4.96,11111222 
WAVCIS,ioos:station:WAVCIS:CSI16:1,2010-04-04T05:00:00Z,29.4012,-89.0355,4.919,11111222 
WAVCIS,ioos:station:WAVCIS:CSI16:1,2010-04-04T06:00:00Z,29.4012,-89.0355,5.057,11111222 
WAVCIS,ioos:station:WAVCIS:CSI16:1,2010-04-04T07:00:00Z,29.4012,-89.0355,4.018,11111222 
WAVCIS,ioos:station:WAVCIS:CSI16:1,2010-04-04T08:00:00Z,29.4012,-89.0355,5.473,11111222 
WAVCIS,ioos:station:WAVCIS:CSI16:1,2010-04-04T09:00:00Z,29.4012,-89.0355,5.086,11111222 
WAVCIS,ioos:station:WAVCIS:CSI16:1,2010-04-04T10:00:00Z,29.4012,-89.0355,3.331,11111222 
WAVCIS,ioos:station:WAVCIS:CSI16:1,2010-04-04T11:00:00Z,29.4012,-89.0355,4.2,11111222 
WAVCIS,ioos:station:WAVCIS:CSI16:1,2010-04-04T12:00:00Z,29.4012,-89.0355,5.569,11111222 
WAVCIS,ioos:station:WAVCIS:CSI16:1,2010-04-04T13:00:00Z,29.4012,-89.0355,5.148,11111222 
WAVCIS,ioos:station:WAVCIS:CSI16:1,2010-04-04T14:00:00Z,29.4012,-89.0355,4.265,11111222 
WAVCIS,ioos:station:WAVCIS:CSI16:1,2010-04-04T15:00:00Z,29.4012,-89.0355,4.355,11111222 
WAVCIS,ioos:station:WAVCIS:CSI16:1,2010-04-04T16:00:00Z,29.4012,-89.0355,5.333,11111222 
WAVCIS,ioos:station:WAVCIS:CSI16:1,2010-04-04T17:00:00Z,29.4012,-89.0355,5.764,11111222 
WAVCIS,ioos:station:WAVCIS:CSI16:1,2010-04-04T18:00:00Z,29.4012,-89.0355,6.421,11111222 
WAVCIS,ioos:station:WAVCIS:CSI16:1,2010-04-04T19:00:00Z,29.4012,-89.0355,6.78,11111222 
WAVCIS,ioos:station:WAVCIS:CSI16:1,2010-04-04T20:00:00Z,29.4012,-89.0355,6.524,11111222 
WAVCIS,ioos:station:WAVCIS:CSI16:1,2010-04-04T21:00:00Z,29.4012,-89.0355,5.321,11111222 
WAVCIS,ioos:station:WAVCIS:CSI16:1,2010-04-04T22:00:00Z,29.4012,-89.0355,5.598,11111222 
WAVCIS,ioos:station:WAVCIS:CSI16:1,2010-04-04T23:00:00Z,29.4012,-89.0355,6.42,11111222 
WAVCIS,ioos:station:WAVCIS:CSI16:1,2010-04-05T00:00:00Z,29.4012,-89.0355,6.351,11111222 
WAVCIS,ioos:station:WAVCIS:CSI16:1,2010-04-05T01:00:00Z,29.4012,-89.0355,5.882,11111222 
WAVCIS,ioos:station:WAVCIS:CSI16:1,2010-04-05T02:00:00Z,29.4012,-89.0355,5.644,11111222 
WAVCIS,ioos:station:WAVCIS:CSI16:1,2010-04-05T03:00:00Z,29.4012,-89.0355,5.837,11111222 
WAVCIS,ioos:station:WAVCIS:CSI16:1,2010-04-05T04:00:00Z,29.4012,-89.0355,5.854,11111222 
WAVCIS,ioos:station:WAVCIS:CSI16:1,2010-04-05T05:00:00Z,29.4012,-89.0355,5.858,11111222 
WAVCIS,ioos:station:WAVCIS:CSI16:1,2010-04-05T06:00:00Z,29.4012,-89.0355,5.109,11111222 
WAVCIS,ioos:station:WAVCIS:CSI16:1,2010-04-05T07:00:00Z,29.4012,-89.0355,3.756,11111222 
WAVCIS,ioos:station:WAVCIS:CSI16:1,2010-04-05T08:00:00Z,29.4012,-89.0355,2.444,11111222 
WAVCIS,ioos:station:WAVCIS:CSI16:1,2010-04-05T09:00:00Z,29.4012,-89.0355,3.161,11111222 
WAVCIS,ioos:station:WAVCIS:CSI16:1,2010-04-05T10:00:00Z,29.4012,-89.0355,3.67,11111222 
WAVCIS,ioos:station:WAVCIS:CSI16:1,2010-04-05T11:00:00Z,29.4012,-89.0355,4.271,11111222 
WAVCIS,ioos:station:WAVCIS:CSI16:1,2010-04-05T12:00:00Z,29.4012,-89.0355,4.788,11111222 
WAVCIS,ioos:station:WAVCIS:CSI16:1,2010-04-05T13:00:00Z,29.4012,-89.0355,5.071,11111222 
WAVCIS,ioos:station:WAVCIS:CSI16:1,2010-04-05T14:00:00Z,29.4012,-89.0355,4.411,11111222 
WAVCIS,ioos:station:WAVCIS:CSI16:1,2010-04-05T15:00:00Z,29.4012,-89.0355,4.317,11111222 
WAVCIS,ioos:station:WAVCIS:CSI16:1,2010-04-05T16:00:00Z,29.4012,-89.0355,5.179,11111222 
WAVCIS,ioos:station:WAVCIS:CSI16:1,2010-04-05T17:00:00Z,29.4012,-89.0355,5.494,11111222 
WAVCIS,ioos:station:WAVCIS:CSI16:1,2010-04-05T18:00:00Z,29.4012,-89.0355,6.139,11111222 
WAVCIS,ioos:station:WAVCIS:CSI16:1,2010-04-05T19:00:00Z,29.4012,-89.0355,5.936,11111222 
WAVCIS,ioos:station:WAVCIS:CSI16:1,2010-04-05T20:00:00Z,29.4012,-89.0355,5.43,11111222 
WAVCIS,ioos:station:WAVCIS:CSI16:1,2010-04-05T21:00:00Z,29.4012,-89.0355,5.177,11111222 
WAVCIS,ioos:station:WAVCIS:CSI16:1,2010-04-05T22:00:00Z,29.4012,-89.0355,4.866,11111222 
WAVCIS,ioos:station:WAVCIS:CSI16:1,2010-04-05T23:00:00Z,29.4012,-89.0355,5.045,11111222 
WAVCIS,ioos:station:WAVCIS:CSI16:1,2010-04-06T00:00:00Z,29.4012,-89.0355,5.433,11111222 
WAVCIS,ioos:station:WAVCIS:CSI16:1,2010-04-06T01:00:00Z,29.4012,-89.0355,6.014,11111222 
WAVCIS,ioos:station:WAVCIS:CSI16:1,2010-04-06T02:00:00Z,29.4012,-89.0355,6.37,11111222 
WAVCIS,ioos:station:WAVCIS:CSI16:1,2010-04-06T03:00:00Z,29.4012,-89.0355,5.625,11111222 
WAVCIS,ioos:station:WAVCIS:CSI16:1,2010-04-06T04:00:00Z,29.4012,-89.0355,4.724,11111222 
WAVCIS,ioos:station:WAVCIS:CSI16:1,2010-04-06T05:00:00Z,29.4012,-89.0355,5.325,11111222 
WAVCIS,ioos:station:WAVCIS:CSI16:1,2010-04-06T06:00:00Z,29.4012,-89.0355,4.073,11111222 
WAVCIS,ioos:station:WAVCIS:CSI16:1,2010-04-06T07:00:00Z,29.4012,-89.0355,3.349,11111222 
WAVCIS,ioos:station:WAVCIS:CSI16:1,2010-04-06T08:00:00Z,29.4012,-89.0355,3.576,11111222 
WAVCIS,ioos:station:WAVCIS:CSI16:1,2010-04-06T09:00:00Z,29.4012,-89.0355,3.675,11111222 
WAVCIS,ioos:station:WAVCIS:CSI16:1,2010-04-06T10:00:00Z,29.4012,-89.0355,4.348,11111222 
WAVCIS,ioos:station:WAVCIS:CSI16:1,2010-04-06T11:00:00Z,29.4012,-89.0355,4.818,11111222 
WAVCIS,ioos:station:WAVCIS:CSI16:1,2010-04-06T12:00:00Z,29.4012,-89.0355,4.835,11111222 
WAVCIS,ioos:station:WAVCIS:CSI16:1,2010-04-06T13:00:00Z,29.4012,-89.0355,4.713,11111222 
WAVCIS,ioos:station:WAVCIS:CSI16:1,2010-04-06T14:00:00Z,29.4012,-89.0355,4.436,11111222 
WAVCIS,ioos:station:WAVCIS:CSI16:1,2010-04-06T15:00:00Z,29.4012,-89.0355,4.987,11111222 
WAVCIS,ioos:station:WAVCIS:CSI16:1,2010-04-06T16:00:00Z,29.4012,-89.0355,5.469,11111222 
WAVCIS,ioos:station:WAVCIS:CSI16:1,2010-04-06T17:00:00Z,29.4012,-89.0355,5.326,11111222 
WAVCIS,ioos:station:WAVCIS:CSI16:1,2010-04-06T18:00:00Z,29.4012,-89.0355,6.539,11111222 
WAVCIS,ioos:station:WAVCIS:CSI16:1,2010-04-06T19:00:00Z,29.4012,-89.0355,7.13,11111222 
WAVCIS,ioos:station:WAVCIS:CSI16:1,2010-04-06T20:00:00Z,29.4012,-89.0355,6.616,11111222 
WAVCIS,ioos:station:WAVCIS:CSI16:1,2010-04-06T21:00:00Z,29.4012,-89.0355,6.924,11111222 
WAVCIS,ioos:station:WAVCIS:CSI16:1,2010-04-06T22:00:00Z,29.4012,-89.0355,6.239,11111222 
WAVCIS,ioos:station:WAVCIS:CSI16:1,2010-04-06T23:00:00Z,29.4012,-89.0355,7.31,11111222 
WAVCIS,ioos:station:WAVCIS:CSI16:1,2010-04-07T00:00:00Z,29.4012,-89.0355,7.46,11111222 
WAVCIS,ioos:station:WAVCIS:CSI16:1,2010-04-07T01:00:00Z,29.4012,-89.0355,7.32,11111222 
WAVCIS,ioos:station:WAVCIS:CSI16:1,2010-04-07T02:00:00Z,29.4012,-89.0355,7.67,11111222 
WAVCIS,ioos:station:WAVCIS:CSI16:1,2010-04-07T03:00:00Z,29.4012,-89.0355,7.46,11111222 
WAVCIS,ioos:station:WAVCIS:CSI16:1,2010-04-07T04:00:00Z,29.4012,-89.0355,7.14,11111222 
WAVCIS,ioos:station:WAVCIS:CSI16:1,2010-04-07T05:00:00Z,29.4012,-89.0355,8.04,11111222 
WAVCIS,ioos:station:WAVCIS:CSI16:1,2010-04-07T06:00:00Z,29.4012,-89.0355,8.91,11111222 
WAVCIS,ioos:station:WAVCIS:CSI16:1,2010-04-07T07:00:00Z,29.4012,-89.0355,9.69,11111222 
WAVCIS,ioos:station:WAVCIS:CSI16:1,2010-04-07T08:00:00Z,29.4012,-89.0355,9.29,11111222 
WAVCIS,ioos:station:WAVCIS:CSI16:1,2010-04-07T09:00:00Z,29.4012,-89.0355,8.45,11111222 
WAVCIS,ioos:station:WAVCIS:CSI16:1,2010-04-07T10:00:00Z,29.4012,-89.0355,6.54,11111222 
WAVCIS,ioos:station:WAVCIS:CSI16:1,2010-04-07T11:00:00Z,29.4012,-89.0355,5.549,11111222 
WAVCIS,ioos:station:WAVCIS:CSI16:1,2010-04-07T12:00:00Z,29.4012,-89.0355,5.829,11111222 
WAVCIS,ioos:station:WAVCIS:CSI16:1,2010-04-07T13:00:00Z,29.4012,-89.0355,5.267,11111222 
WAVCIS,ioos:station:WAVCIS:CSI16:1,2010-04-07T14:00:00Z,29.4012,-89.0355,6.047,11111222 
WAVCIS,ioos:station:WAVCIS:CSI16:1,2010-04-07T15:00:00Z,29.4012,-89.0355,6.804,11111222 
WAVCIS,ioos:station:WAVCIS:CSI16:1,2010-04-07T16:00:00Z,29.4012,-89.0355,6.136,11111222 
WAVCIS,ioos:station:WAVCIS:CSI16:1,2010-04-07T17:00:00Z,29.4012,-89.0355,7.89,11111222 
WAVCIS,ioos:station:WAVCIS:CSI16:1,2010-04-07T18:00:00Z,29.4012,-89.0355,5.687,11111222 
WAVCIS,ioos:station:WAVCIS:CSI16:1,2010-04-07T19:00:00Z,29.4012,-89.0355,4.272,11111222 
WAVCIS,ioos:station:WAVCIS:CSI16:1,2010-04-07T20:00:00Z,29.4012,-89.0355,4.268,11111222 
WAVCIS,ioos:station:WAVCIS:CSI16:1,2010-04-07T21:00:00Z,29.4012,-89.0355,4.516,11111222 
WAVCIS,ioos:station:WAVCIS:CSI16:1,2010-04-07T22:00:00Z,29.4012,-89.0355,5.919,11111222 
WAVCIS,ioos:station:WAVCIS:CSI16:1,2010-04-07T23:00:00Z,29.4012,-89.0355,5.753,11111222 
WAVCIS,ioos:station:WAVCIS:CSI16:1,2010-04-08T00:00:00Z,29.4012,-89.0355,6.112,11111222 
WAVCIS,ioos:station:WAVCIS:CSI16:1,2010-04-08T01:00:00Z,29.4012,-89.0355,7.45,11111222 
WAVCIS,ioos:station:WAVCIS:CSI16:1,2010-04-08T02:00:00Z,29.4012,-89.0355,7.92,11111222 
WAVCIS,ioos:station:WAVCIS:CSI16:1,2010-04-08T03:00:00Z,29.4012,-89.0355,8.02,11111222 
WAVCIS,ioos:station:WAVCIS:CSI16:1,2010-04-08T04:00:00Z,29.4012,-89.0355,6.735,11111222 
WAVCIS,ioos:station:WAVCIS:CSI16:1,2010-04-08T05:00:00Z,29.4012,-89.0355,6.107,11111222 
WAVCIS,ioos:station:WAVCIS:CSI16:1,2010-04-08T06:00:00Z,29.4012,-89.0355,6.208,11111222 
WAVCIS,ioos:station:WAVCIS:CSI16:1,2010-04-08T07:00:00Z,29.4012,-89.0355,6.583,11111222 
WAVCIS,ioos:station:WAVCIS:CSI16:1,2010-04-08T08:00:00Z,29.4012,-89.0355,6.888,11111222 
WAVCIS,ioos:station:WAVCIS:CSI16:1,2010-04-08T09:00:00Z,29.4012,-89.0355,9.49,11111222 
WAVCIS,ioos:station:WAVCIS:CSI16:1,2010-04-08T10:00:00Z,29.4012,-89.0355,7.53,11111222 
WAVCIS,ioos:station:WAVCIS:CSI16:1,2010-04-08T11:00:00Z,29.4012,-89.0355,7.95,11111222 
WAVCIS,ioos:station:WAVCIS:CSI16:1,2010-04-08T12:00:00Z,29.4012,-89.0355,9.23,11111222 
WAVCIS,ioos:station:WAVCIS:CSI16:1,2010-04-08T13:00:00Z,29.4012,-89.0355,9.88,11111222 
WAVCIS,ioos:station:WAVCIS:CSI16:1,2010-04-08T14:00:00Z,29.4012,-89.0355,7.49,11111222 
WAVCIS,ioos:station:WAVCIS:CSI16:1,2010-04-08T15:00:00Z,29.4012,-89.0355,6.199,11111222 
WAVCIS,ioos:station:WAVCIS:CSI16:1,2010-04-08T16:00:00Z,29.4012,-89.0355,7.91,11111222 
WAVCIS,ioos:station:WAVCIS:CSI16:1,2010-04-08T17:00:00Z,29.4012,-89.0355,10.56,11111222 
WAVCIS,ioos:station:WAVCIS:CSI16:1,2010-04-08T18:00:00Z,29.4012,-89.0355,7.11,11111222 
WAVCIS,ioos:station:WAVCIS:CSI16:1,2010-04-08T19:00:00Z,29.4012,-89.0355,5.514,11111222 
WAVCIS,ioos:station:WAVCIS:CSI16:1,2010-04-08T20:00:00Z,29.4012,-89.0355,4.462,11111222 
WAVCIS,ioos:station:WAVCIS:CSI16:1,2010-04-08T21:00:00Z,29.4012,-89.0355,6.062,11111222 
WAVCIS,ioos:station:WAVCIS:CSI16:1,2010-04-08T22:00:00Z,29.4012,-89.0355,5.242,11111222 
WAVCIS,ioos:station:WAVCIS:CSI16:1,2010-04-08T23:00:00Z,29.4012,-89.0355,6.139,11111222 
WAVCIS,ioos:station:WAVCIS:CSI16:1,2010-04-09T00:00:00Z,29.4012,-89.0355,7.28,11111222 
WAVCIS,ioos:station:WAVCIS:CSI16:1,2010-04-09T01:00:00Z,29.4012,-89.0355,8.19,11111222 
WAVCIS,ioos:station:WAVCIS:CSI16:1,2010-04-09T02:00:00Z,29.4012,-89.0355,8.35,11111222 
WAVCIS,ioos:station:WAVCIS:CSI16:1,2010-04-09T03:00:00Z,29.4012,-89.0355,11.39,11111222 
WAVCIS,ioos:station:WAVCIS:CSI16:1,2010-04-09T04:00:00Z,29.4012,-89.0355,11.71,11111222 
WAVCIS,ioos:station:WAVCIS:CSI16:1,2010-04-09T05:00:00Z,29.4012,-89.0355,12.06,11111222 
WAVCIS,ioos:station:WAVCIS:CSI16:1,2010-04-09T06:00:00Z,29.4012,-89.0355,12.15,11111222 
WAVCIS,ioos:station:WAVCIS:CSI16:1,2010-04-09T07:00:00Z,29.4012,-89.0355,12.35,11111222 
WAVCIS,ioos:station:WAVCIS:CSI16:1,2010-04-09T08:00:00Z,29.4012,-89.0355,12.11,11111222 
WAVCIS,ioos:station:WAVCIS:CSI16:1,2010-04-09T09:00:00Z,29.4012,-89.0355,12.96,11111222 
WAVCIS,ioos:station:WAVCIS:CSI16:1,2010-04-09T10:00:00Z,29.4012,-89.0355,12.75,11111222 
WAVCIS,ioos:station:WAVCIS:CSI16:1,2010-04-09T11:00:00Z,29.4012,-89.0355,13.12,11111222 
WAVCIS,ioos:station:WAVCIS:CSI16:1,2010-04-09T12:00:00Z,29.4012,-89.0355,8.26,11111222 
WAVCIS,ioos:station:WAVCIS:CSI16:1,2010-04-09T13:00:00Z,29.4012,-89.0355,8.2,11111222 
WAVCIS,ioos:station:WAVCIS:CSI16:1,2010-04-09T14:00:00Z,29.4012,-89.0355,6.303,11111222 
WAVCIS,ioos:station:WAVCIS:CSI16:1,2010-04-09T15:00:00Z,29.4012,-89.0355,4.848,11111222 
WAVCIS,ioos:station:WAVCIS:CSI16:1,2010-04-09T16:00:00Z,29.4012,-89.0355,6.046,11111222 
WAVCIS,ioos:station:WAVCIS:CSI16:1,2010-04-09T17:00:00Z,29.4012,-89.0355,5.753,11111222 
WAVCIS,ioos:station:WAVCIS:CSI16:1,2010-04-09T18:00:00Z,29.4012,-89.0355,4.209,11111222 
WAVCIS,ioos:station:WAVCIS:CSI16:1,2010-04-09T19:00:00Z,29.4012,-89.0355,3.422,11111222 
WAVCIS,ioos:station:WAVCIS:CSI16:1,2010-04-09T20:00:00Z,29.4012,-89.0355,3.369,11111222 
WAVCIS,ioos:station:WAVCIS:CSI16:1,2010-04-09T21:00:00Z,29.4012,-89.0355,2.923,11111222 
WAVCIS,ioos:station:WAVCIS:CSI16:1,2010-04-09T22:00:00Z,29.4012,-89.0355,2.791,11111222 
WAVCIS,ioos:station:WAVCIS:CSI16:1,2010-04-09T23:00:00Z,29.4012,-89.0355,2.675,11111222 
WAVCIS,ioos:station:WAVCIS:CSI16:1,2010-04-10T00:00:00Z,29.4012,-89.0355,1.279,11111222 
WAVCIS,ioos:station:WAVCIS:CSI16:1,2010-04-10T01:00:00Z,29.4012,-89.0355,1.866,11111222 
WAVCIS,ioos:station:WAVCIS:CSI16:1,2010-04-10T02:00:00Z,29.4012,-89.0355,2.583,11111222 
WAVCIS,ioos:station:WAVCIS:CSI16:1,2010-04-10T03:00:00Z,29.4012,-89.0355,1.637,11111222 
WAVCIS,ioos:station:WAVCIS:CSI16:1,2010-04-10T04:00:00Z,29.4012,-89.0355,1.143,11111222 
WAVCIS,ioos:station:WAVCIS:CSI16:1,2010-04-10T05:00:00Z,29.4012,-89.0355,1.871,11111222 
WAVCIS,ioos:station:WAVCIS:CSI16:1,2010-04-10T06:00:00Z,29.4012,-89.0355,0.715,11111222 
WAVCIS,ioos:station:WAVCIS:CSI16:1,2010-04-10T07:00:00Z,29.4012,-89.0355,3.274,11111222 
WAVCIS,ioos:station:WAVCIS:CSI16:1,2010-04-10T08:00:00Z,29.4012,-89.0355,4.705,11111222 
WAVCIS,ioos:station:WAVCIS:CSI16:1,2010-04-10T09:00:00Z,29.4012,-89.0355,5.518,11111222 
WAVCIS,ioos:station:WAVCIS:CSI16:1,2010-04-10T10:00:00Z,29.4012,-89.0355,4.592,11111222 
WAVCIS,ioos:station:WAVCIS:CSI16:1,2010-04-10T11:00:00Z,29.4012,-89.0355,2.073,11111222 
WAVCIS,ioos:station:WAVCIS:CSI16:1,2010-04-10T12:00:00Z,29.4012,-89.0355,3.905,11111222 
WAVCIS,ioos:station:WAVCIS:CSI16:1,2010-04-10T13:00:00Z,29.4012,-89.0355,5.522,11111222 
WAVCIS,ioos:station:WAVCIS:CSI16:1,2010-04-10T14:00:00Z,29.4012,-89.0355,5.18,11111222 
WAVCIS,ioos:station:WAVCIS:CSI16:1,2010-04-10T15:00:00Z,29.4012,-89.0355,4.006,11111222 
WAVCIS,ioos:station:WAVCIS:CSI16:1,2010-04-10T16:00:00Z,29.4012,-89.0355,4.863,11111222 
WAVCIS,ioos:station:WAVCIS:CSI16:1,2010-04-10T17:00:00Z,29.4012,-89.0355,8.45,11111222 
WAVCIS,ioos:station:WAVCIS:CSI16:1,2010-04-10T18:00:00Z,29.4012,-89.0355,7.09,11111222 
WAVCIS,ioos:station:WAVCIS:CSI16:1,2010-04-10T19:00:00Z,29.4012,-89.0355,7.08,11111222 
WAVCIS,ioos:station:WAVCIS:CSI16:1,2010-04-10T20:00:00Z,29.4012,-89.0355,7.76,11111222 
WAVCIS,ioos:station:WAVCIS:CSI16:1,2010-04-10T21:00:00Z,29.4012,-89.0355,6.84,11111222 
WAVCIS,ioos:station:WAVCIS:CSI16:1,2010-04-10T22:00:00Z,29.4012,-89.0355,6.102,11111222 
WAVCIS,ioos:station:WAVCIS:CSI16:1,2010-04-10T23:00:00Z,29.4012,-89.0355,5.831,11111222 
WAVCIS,ioos:station:WAVCIS:CSI16:1,2010-04-11T00:00:00Z,29.4012,-89.0355,5.041,11111222 
WAVCIS,ioos:station:WAVCIS:CSI16:1,2010-04-11T01:00:00Z,29.4012,-89.0355,3.873,11111222 
WAVCIS,ioos:station:WAVCIS:CSI16:1,2010-04-11T02:00:00Z,29.4012,-89.0355,4.016,11111222 
WAVCIS,ioos:station:WAVCIS:CSI16:1,2010-04-11T03:00:00Z,29.4012,-89.0355,5.669,11111222 
WAVCIS,ioos:station:WAVCIS:CSI16:1,2010-04-11T04:00:00Z,29.4012,-89.0355,6.273,11111222 
WAVCIS,ioos:station:WAVCIS:CSI16:1,2010-04-11T05:00:00Z,29.4012,-89.0355,5.517,11111222 
WAVCIS,ioos:station:WAVCIS:CSI16:1,2010-04-11T06:00:00Z,29.4012,-89.0355,5.385,11111222 
WAVCIS,ioos:station:WAVCIS:CSI16:1,2010-04-11T07:00:00Z,29.4012,-89.0355,5.429,11111222 
WAVCIS,ioos:station:WAVCIS:CSI16:1,2010-04-11T08:00:00Z,29.4012,-89.0355,3.711,11111222 
WAVCIS,ioos:station:WAVCIS:CSI16:1,2010-04-11T09:00:00Z,29.4012,-89.0355,2.965,11111222 
WAVCIS,ioos:station:WAVCIS:CSI16:1,2010-04-11T10:00:00Z,29.4012,-89.0355,3.585,11111222 
WAVCIS,ioos:station:WAVCIS:CSI16:1,2010-04-11T11:00:00Z,29.4012,-89.0355,4.372,11111222 
WAVCIS,ioos:station:WAVCIS:CSI16:1,2010-04-11T12:00:00Z,29.4012,-89.0355,3.533,11111222 
WAVCIS,ioos:station:WAVCIS:CSI16:1,2010-04-11T13:00:00Z,29.4012,-89.0355,4.241,11111222 
WAVCIS,ioos:station:WAVCIS:CSI16:1,2010-04-11T14:00:00Z,29.4012,-89.0355,4.122,11111222 
WAVCIS,ioos:station:WAVCIS:CSI16:1,2010-04-11T15:00:00Z,29.4012,-89.0355,7.27,11111222 
WAVCIS,ioos:station:WAVCIS:CSI16:1,2010-04-11T16:00:00Z,29.4012,-89.0355,6.182,11111222 
WAVCIS,ioos:station:WAVCIS:CSI16:1,2010-04-11T17:00:00Z,29.4012,-89.0355,5.837,11111222 
WAVCIS,ioos:station:WAVCIS:CSI16:1,2010-04-11T18:00:00Z,29.4012,-89.0355,5.418,11111222 
WAVCIS,ioos:station:WAVCIS:CSI16:1,2010-04-11T19:00:00Z,29.4012,-89.0355,5.325,11111222 
WAVCIS,ioos:station:WAVCIS:CSI16:1,2010-04-11T20:00:00Z,29.4012,-89.0355,4.598,11111222 
WAVCIS,ioos:station:WAVCIS:CSI16:1,2010-04-11T21:00:00Z,29.4012,-89.0355,4.35,11111222 
WAVCIS,ioos:station:WAVCIS:CSI16:1,2010-04-11T22:00:00Z,29.4012,-89.0355,5.645,11111222 
WAVCIS,ioos:station:WAVCIS:CSI16:1,2010-04-11T23:00:00Z,29.4012,-89.0355,5.442,11111222 
WAVCIS,ioos:station:WAVCIS:CSI16:1,2010-04-12T00:00:00Z,29.4012,-89.0355,6.237,11111222 
WAVCIS,ioos:station:WAVCIS:CSI16:1,2010-04-12T01:00:00Z,29.4012,-89.0355,5.873,11111222 
WAVCIS,ioos:station:WAVCIS:CSI16:1,2010-04-12T02:00:00Z,29.4012,-89.0355,4.334,11111222 
WAVCIS,ioos:station:WAVCIS:CSI16:1,2010-04-12T03:00:00Z,29.4012,-89.0355,3.963,11111222 
WAVCIS,ioos:station:WAVCIS:CSI16:1,2010-04-12T04:00:00Z,29.4012,-89.0355,2.967,11111222 